TimeCDT,TemperatureF,Dew PointF,Humidity,Sea Level PressureIn,VisibilityMPH,Wind Direction,Wind SpeedMPH,Gust SpeedMPH,PrecipitationIn,Events,Conditions,WindDirDegrees,DateUTC
12:00 AM,50.0,39.2,66,30.07,10.0,Calm,Calm,-,N/A,,Clear,0,2012-09-30 05:00:00
12:20 AM,44.6,37.4,76,30.07,10.0,Calm,Calm,-,N/A,,Clear,0,2012-09-30 05:20:00
12:40 AM,44.6,39.2,81,30.07,10.0,Calm,Calm,-,N/A,,Clear,0,2012-09-30 05:40:00
1:00 AM,42.8,37.4,81,30.07,10.0,Calm,Calm,-,N/A,,Clear,0,2012-09-30 06:00:00
1:20 AM,44.6,39.2,81,30.07,10.0,Calm,Calm,-,N/A,,Clear,0,2012-09-30 06:20:00
1:40 AM,42.8,37.4,81,30.07,10.0,Calm,Calm,-,N/A,,Clear,0,2012-09-30 06:40:00
2:00 AM,44.6,41.0,87,30.07,10.0,Calm,Calm,-,N/A,,Clear,0,2012-09-30 07:00:00
2:20 AM,44.6,39.2,81,30.07,10.0,Calm,Calm,-,N/A,,Clear,0,2012-09-30 07:20:00
2:39 AM,44.6,41.0,87,30.06,10.0,Calm,Calm,-,N/A,,Clear,0,2012-09-30 07:39:00
3:00 AM,44.6,39.2,81,30.05,10.0,Calm,Calm,-,N/A,,Clear,0,2012-09-30 08:00:00
3:20 AM,44.6,39.2,81,30.05,10.0,Calm,Calm,-,N/A,,Clear,0,2012-09-30 08:20:00
3:39 AM,42.8,37.4,81,30.05,10.0,Calm,Calm,-,N/A,,Clear,0,2012-09-30 08:39:00
4:00 AM,41.0,35.6,81,30.05,10.0,Calm,Calm,-,N/A,,Clear,0,2012-09-30 09:00:00
4:20 AM,41.0,37.4,87,30.05,10.0,Calm,Calm,-,N/A,,Clear,0,2012-09-30 09:20:00
4:39 AM,37.4,33.8,87,30.05,10.0,Calm,Calm,-,N/A,,Clear,0,2012-09-30 09:39:00
5:00 AM,37.4,35.6,93,30.05,10.0,Calm,Calm,-,N/A,,Clear,0,2012-09-30 10:00:00
5:20 AM,37.4,35.6,93,30.05,10.0,Calm,Calm,-,N/A,,Clear,0,2012-09-30 10:20:00
5:40 AM,35.6,33.8,93,30.05,10.0,Calm,Calm,-,N/A,,Clear,0,2012-09-30 10:40:00
6:00 AM,37.4,35.6,93,30.05,10.0,Calm,Calm,-,N/A,,Clear,0,2012-09-30 11:00:00
6:20 AM,37.4,35.6,93,30.04,10.0,Calm,Calm,-,N/A,,Clear,0,2012-09-30 11:20:00
6:40 AM,35.6,33.8,93,30.04,10.0,Calm,Calm,-,N/A,,Clear,0,2012-09-30 11:40:00
7:00 AM,35.6,35.6,100,30.04,10.0,Calm,Calm,-,N/A,,Clear,0,2012-09-30 12:00:00
7:20 AM,37.4,35.6,93,30.04,10.0,Calm,Calm,-,N/A,,Clear,0,2012-09-30 12:20:00
7:40 AM,37.4,35.6,93,30.04,10.0,Calm,Calm,-,N/A,,Clear,0,2012-09-30 12:40:00
8:00 AM,37.4,35.6,93,30.04,10.0,Calm,Calm,-,N/A,,Clear,0,2012-09-30 13:00:00
8:20 AM,42.8,41.0,93,30.04,10.0,Calm,Calm,-,N/A,,Clear,0,2012-09-30 13:20:00
8:40 AM,44.6,39.2,81,30.04,10.0,Calm,Calm,-,N/A,,Clear,0,2012-09-30 13:40:00
9:00 AM,48.2,41.0,76,30.04,10.0,Calm,Calm,-,N/A,,Clear,0,2012-09-30 14:00:00
9:20 AM,50.0,41.0,71,30.04,10.0,Calm,Calm,-,N/A,,Clear,0,2012-09-30 14:20:00
9:40 AM,53.6,41.0,62,30.04,10.0,Calm,Calm,-,N/A,,Clear,0,2012-09-30 14:40:00
10:00 AM,53.6,39.2,58,30.03,10.0,Calm,Calm,-,N/A,,Clear,0,2012-09-30 15:00:00
10:20 AM,55.4,39.2,54,30.03,10.0,Calm,Calm,-,N/A,,Clear,0,2012-09-30 15:20:00
10:40 AM,59.0,39.2,48,30.03,10.0,Calm,Calm,-,N/A,,Clear,0,2012-09-30 15:40:00
11:00 AM,60.8,39.2,45,30.02,10.0,Calm,Calm,-,N/A,,Clear,0,2012-09-30 16:00:00
11:20 AM,64.4,42.8,45,30.02,10.0,Calm,Calm,-,N/A,,Clear,0,2012-09-30 16:20:00
11:40 AM,64.4,37.4,37,30.01,10.0,Calm,Calm,-,N/A,,Clear,0,2012-09-30 16:40:00
12:00 PM,68.0,35.6,30,30.01,10.0,ESE,5.8,-,N/A,,Clear,120,2012-09-30 17:00:00
12:20 PM,69.8,35.6,28,30.01,10.0,South,3.5,-,N/A,,Clear,170,2012-09-30 17:20:00
12:40 PM,69.8,33.8,27,30.00,10.0,ESE,5.8,-,N/A,,Clear,110,2012-09-30 17:40:00
1:00 PM,71.6,33.8,25,30.00,10.0,SSE,6.9,-,N/A,,Clear,150,2012-09-30 18:00:00
1:20 PM,71.6,33.8,25,29.98,10.0,South,5.8,-,N/A,,Clear,170,2012-09-30 18:20:00
1:40 PM,73.4,32.0,22,29.98,10.0,South,5.8,-,N/A,,Clear,170,2012-09-30 18:40:00
2:00 PM,73.4,32.0,22,29.97,10.0,South,5.8,-,N/A,,Clear,190,2012-09-30 19:00:00
2:20 PM,73.4,33.8,23,29.97,10.0,SE,5.8,-,N/A,,Clear,130,2012-09-30 19:20:00
2:40 PM,73.4,35.6,25,29.96,10.0,SE,3.5,-,N/A,,Clear,140,2012-09-30 19:40:00
3:00 PM,75.2,35.6,24,29.95,10.0,South,3.5,-,N/A,,Clear,170,2012-09-30 20:00:00
3:20 PM,75.2,35.6,24,29.94,10.0,South,6.9,-,N/A,,Clear,190,2012-09-30 20:20:00
3:40 PM,75.2,35.6,24,29.93,10.0,ESE,4.6,-,N/A,,Clear,120,2012-09-30 20:40:00
4:00 PM,75.2,35.6,24,29.93,10.0,SSE,4.6,-,N/A,,Clear,150,2012-09-30 21:00:00
4:20 PM,73.4,35.6,25,29.92,10.0,South,5.8,-,N/A,,Clear,170,2012-09-30 21:20:00
4:40 PM,73.4,35.6,25,29.92,10.0,South,8.1,-,N/A,,Clear,190,2012-09-30 21:40:00
5:00 PM,73.4,35.6,25,29.92,10.0,South,5.8,-,N/A,,Clear,170,2012-09-30 22:00:00
5:20 PM,73.4,35.6,25,29.92,10.0,South,5.8,-,N/A,,Clear,190,2012-09-30 22:20:00
5:40 PM,73.4,35.6,25,29.92,10.0,SSE,6.9,-,N/A,,Clear,160,2012-09-30 22:40:00
6:00 PM,71.6,37.4,29,29.92,10.0,South,4.6,-,N/A,,Clear,170,2012-09-30 23:00:00
6:20 PM,69.8,35.6,28,29.91,10.0,Calm,Calm,-,N/A,,Clear,0,2012-09-30 23:20:00
6:40 PM,66.2,35.6,32,29.91,10.0,SE,3.5,-,N/A,,Clear,130,2012-09-30 23:40:00
7:20 PM,59.0,37.4,45,29.92,10.0,Calm,Calm,-,N/A,,Clear,0,2012-10-01 00:20:00
7:40 PM,55.4,37.4,51,29.91,10.0,Calm,Calm,-,N/A,,Clear,0,2012-10-01 00:40:00
8:00 PM,55.4,39.2,54,29.91,10.0,Calm,Calm,-,N/A,,Clear,0,2012-10-01 01:00:00
8:20 PM,53.6,37.4,54,29.91,10.0,Calm,Calm,-,N/A,,Clear,0,2012-10-01 01:20:00
8:40 PM,53.6,37.4,54,29.91,10.0,Calm,Calm,-,N/A,,Clear,0,2012-10-01 01:40:00
9:00 PM,51.8,37.4,58,29.90,10.0,Calm,Calm,-,N/A,,Clear,0,2012-10-01 02:00:00
9:20 PM,51.8,39.2,62,29.90,10.0,Calm,Calm,-,N/A,,Clear,0,2012-10-01 02:20:00
9:40 PM,50.0,41.0,71,29.90,10.0,Calm,Calm,-,N/A,,Clear,0,2012-10-01 02:40:00
10:20 PM,48.2,39.2,71,29.90,10.0,Calm,Calm,-,N/A,,Clear,0,2012-10-01 03:20:00
10:40 PM,50.0,41.0,71,29.89,10.0,Calm,Calm,-,N/A,,Clear,0,2012-10-01 03:40:00
11:20 PM,46.4,41.0,81,29.89,10.0,Calm,Calm,-,N/A,,Clear,0,2012-10-01 04:20:00
11:40 PM,46.4,37.4,71,29.88,10.0,Calm,Calm,-,N/A,,Clear,0,2012-10-01 04:40:00